Regional Weather Roundup
Issued by NWS Cleveland, OH

Home | Current Version | Previous Version | Text Only | Print | Product List | Glossary Off
Versions: 1 2 3 4 5 6 7 8 9 10 11 12 13 14 15 16 17 18 19 20 21 22 23 24 25 26 27 28 29 30 31 32 33 34 35 36 37 38 39 40 41 42 43 44 45 46 47 48 49 50

000
ASUS41 KCLE 020510
RWRCLE
OHIO REGIONAL WEATHER ROUNDUP
NATIONAL WEATHER SERVICE CLEVELAND, OH
100 AM EDT WED SEP 02 2015

NOTE: "FAIR" INDICATES FEW OR NO CLOUDS BELOW 12,000 FEET WITH NO
SIGNIFICANT WEATHER AND/OR OBSTRUCTIONS TO VISIBILITY.

OHZ001>008-015>018-024>027-034-035-043-044-020600-
   NORTHWEST OHIO

CITY           SKY/WX    TMP DP  RH WIND       PRES   REMARKS
DEFIANCE       CLEAR     72  66  81 MISG      30.09R
FINDLAY        CLEAR     70  66  87 S5        30.09S
TOLEDO EXPRESS CLEAR     72  68  87 SW6       30.08S
TOLEDO EXEC    CLEAR     73  66  78 SW7       30.09S
LIMA           CLEAR     70  66  87 S5        30.11S
$$

OHZ009>014-019>023-028>033-038-089-020600-
   NORTHEAST OHIO

CITY           SKY/WX    TMP DP  RH WIND       PRES   REMARKS
CLE-HOPKINS    PTCLDY    71  68  90 S5        30.11S
CLE-LAKEFRONT  CLEAR     76  67  73 S5        30.07S
CUY CO. ARPT   NOT AVBL
LORAIN-ELYRIA  CLEAR     69  67  93 S3        30.10S FOG
ASHTABULA      CLEAR     67  66  97 CALM      30.10S
AKRON-CANTON   PTCLDY    72  66  81 CALM      30.12S
WOOSTER        PTCLDY    67  66  97 CALM      30.12F FOG
MANSFIELD      MOCLDY    72  67  84 SW5       30.13S
YOUNGSTOWN     MOCLDY    69  65  86 CALM      30.11S
$$

OHZ042-051>053-060>062-070>072-077>081-020600-
  SOUTHWEST OHIO

CITY           SKY/WX    TMP DP  RH WIND       PRES   REMARKS
CINC-COVINGTON PTCLDY    73  67  81 SW5       30.13R
CINC-LUNKEN    CLEAR     69  68  96 CALM      30.12R FOG
HAMILTON       CLEAR     68  66  93 CALM      30.13R FOG
DAYTON         PTCLDY    69  66  90 SW5       30.13S
WRIGHT-PAT AFB CLEAR     68  68  99 CALM      30.12S
DAYTON GENERAL CLEAR     69  65  86 CALM      30.12S
WILMINGTON     CLEAR     67  65  93 CALM      30.13S FOG
$$

OHZ036-037-039>041-045>050-054>059-063>069-073>076-082>088-020600-
  CENTRAL AND SOUTHEAST OHIO

CITY           SKY/WX    TMP DP  RH WIND       PRES   REMARKS
COLUMBUS       PTCLDY    73  67  81 CALM      30.11S
OSU AIRPORT    MOCLDY    72  66  81 W3        30.12R
BOLTON FIELD   PTCLDY    68  68  98 CALM      30.13S FOG
RICKENBACK AFB PTCLDY    69  65  88 CALM      30.11S
NEWARK         CLEAR     68  66  93 CALM      30.11F FOG
MARION         MOCLDY    68  65  90 CALM      30.12S FOG
LANCASTER      PTCLDY    65  63  93 CALM      30.12S FOG
ZANESVILLE     CLEAR     69  66  90 CALM      30.12S FOG
NEW PHILLY     PTCLDY    69  67  93 CALM      30.12S FOG
$$



USA.gov is the U.S. government's official web portal to all federal, state and local government web resources and services.